Time,TemperatureF,DewpointF,PressureIn,WindDirection,WindDirectionDegrees,WindSpeedMPH,WindSpeedGustMPH,Humidity,HourlyPrecipIn,Conditions,Clouds,dailyrainin,SolarRadiationWatts/m^2,SoftwareType,DateUTC
2013-05-29 00:01:00,47.0,41.0,-100.00,SE,133,1.0,4.0,80,0.00,,,0.07,1.000000,,2013-05-29 06:01:00,
2013-05-29 00:11:00,47.0,41.0,-100.00,SE,133,1.0,4.0,80,0.00,,,0.07,1.000000,,2013-05-29 06:11:00,
2013-05-29 00:32:00,47.0,41.0,-100.00,SSE,162,0.0,0.0,79,0.00,,,0.07,1.000000,,2013-05-29 06:32:00,
2013-05-29 00:42:00,47.0,41.0,-100.00,SSE,162,0.0,0.0,79,0.00,,,0.07,1.000000,,2013-05-29 06:42:00,
2013-05-29 00:52:00,47.0,41.0,-100.00,SSE,162,0.0,0.0,79,0.00,,,0.07,1.000000,,2013-05-29 06:52:00,
2013-05-29 01:01:00,47.0,41.0,-100.00,SSE,162,0.0,0.0,79,0.00,,,0.07,1.000000,,2013-05-29 07:01:00,
2013-05-29 01:11:00,47.0,41.0,-100.00,SSE,162,0.0,0.0,79,0.00,,,0.07,1.000000,,2013-05-29 07:11:00,
2013-05-29 01:34:00,45.0,40.0,-100.00,East,95,0.0,3.0,84,0.00,,,0.07,1.000000,,2013-05-29 07:34:00,
2013-05-29 01:42:00,45.0,40.0,-100.00,East,95,0.0,3.0,84,0.00,,,0.07,1.000000,,2013-05-29 07:42:00,
2013-05-29 01:52:00,45.0,40.0,-100.00,East,95,0.0,3.0,84,0.00,,,0.07,1.000000,,2013-05-29 07:52:00,
2013-05-29 02:02:00,45.0,40.0,-100.00,East,95,0.0,3.0,84,0.00,,,0.07,1.000000,,2013-05-29 08:02:00,
2013-05-29 02:11:00,45.0,40.0,-100.00,East,95,0.0,3.0,84,0.00,,,0.07,1.000000,,2013-05-29 08:11:00,
2013-05-29 02:32:00,42.0,39.0,-100.00,ESE,118,1.0,2.0,88,0.00,,,0.06,1.000000,,2013-05-29 08:32:00,
2013-05-29 02:42:00,42.0,39.0,-100.00,ESE,118,1.0,2.0,88,0.00,,,0.06,1.000000,,2013-05-29 08:42:00,
2013-05-29 02:52:00,42.0,39.0,-100.00,ESE,118,1.0,2.0,88,0.00,,,0.06,1.000000,,2013-05-29 08:52:00,
2013-05-29 03:01:00,42.0,39.0,-100.00,ESE,118,1.0,2.0,88,0.00,,,0.06,1.000000,,2013-05-29 09:01:00,
2013-05-29 03:11:00,42.0,39.0,-100.00,ESE,118,1.0,2.0,88,0.00,,,0.06,1.000000,,2013-05-29 09:11:00,
2013-05-29 03:33:00,39.0,37.0,-100.00,ESE,123,2.0,3.0,92,0.00,,,0.06,1.000000,,2013-05-29 09:33:00,
2013-05-29 03:42:00,39.0,37.0,-100.00,ESE,123,2.0,3.0,92,0.00,,,0.06,1.000000,,2013-05-29 09:42:00,
2013-05-29 03:52:00,39.0,37.0,-100.00,ESE,123,2.0,3.0,92,0.00,,,0.06,1.000000,,2013-05-29 09:52:00,
2013-05-29 04:02:00,39.0,37.0,-100.00,ESE,123,2.0,3.0,92,0.00,,,0.06,1.000000,,2013-05-29 10:02:00,
2013-05-29 04:12:00,39.0,37.0,-100.00,ESE,123,2.0,3.0,92,0.00,,,0.06,1.000000,,2013-05-29 10:12:00,
2013-05-29 04:33:00,37.0,35.0,-100.00,ESE,107,3.0,5.0,93,0.00,,,0.03,1.000000,,2013-05-29 10:33:00,
2013-05-29 04:42:00,37.0,35.0,-100.00,ESE,107,3.0,5.0,93,0.00,,,0.03,1.000000,,2013-05-29 10:42:00,
2013-05-29 04:53:00,37.0,35.0,-100.00,ESE,107,3.0,5.0,93,0.00,,,0.03,1.000000,,2013-05-29 10:53:00,
2013-05-29 05:02:00,37.0,35.0,-100.00,ESE,107,3.0,5.0,93,0.00,,,0.03,1.000000,,2013-05-29 11:02:00,
2013-05-29 05:11:00,37.0,35.0,-100.00,ESE,107,3.0,5.0,93,0.00,,,0.03,1.000000,,2013-05-29 11:11:00,
2013-05-29 05:32:00,35.0,34.0,-100.00,East,93,1.0,3.0,95,0.00,,,0.02,1.000000,,2013-05-29 11:32:00,
2013-05-29 05:42:00,35.0,34.0,-100.00,East,93,1.0,3.0,95,0.00,,,0.02,1.000000,,2013-05-29 11:42:00,
2013-05-29 05:52:00,35.0,34.0,-100.00,East,93,1.0,3.0,95,0.00,,,0.02,1.000000,,2013-05-29 11:52:00,
2013-05-29 06:01:00,35.0,34.0,-100.00,East,93,1.0,3.0,95,0.00,,,0.02,1.000000,,2013-05-29 12:01:00,
2013-05-29 06:11:00,35.0,34.0,-100.00,East,93,1.0,3.0,95,0.00,,,0.02,1.000000,,2013-05-29 12:11:00,
2013-05-29 06:32:00,34.0,33.0,-100.00,ESE,107,1.0,5.0,95,0.00,,,0.02,1.000000,,2013-05-29 12:32:00,
2013-05-29 06:42:00,34.0,33.0,-100.00,ESE,107,1.0,5.0,95,0.00,,,0.02,1.000000,,2013-05-29 12:42:00,
2013-05-29 06:52:00,34.0,33.0,-100.00,ESE,107,1.0,5.0,95,0.00,,,0.02,1.000000,,2013-05-29 12:52:00,
2013-05-29 07:01:00,34.0,33.0,-100.00,ESE,107,1.0,5.0,95,0.00,,,0.02,1.000000,,2013-05-29 13:01:00,
2013-05-29 07:11:00,34.0,33.0,-100.00,ESE,107,1.0,5.0,95,0.00,,,0.02,1.000000,,2013-05-29 13:11:00,
2013-05-29 07:32:00,33.0,32.0,-100.00,NNE,32,3.0,5.0,96,0.00,,,0.02,5.000000,,2013-05-29 13:32:00,
2013-05-29 07:42:00,33.0,32.0,-100.00,NNE,32,3.0,5.0,96,0.00,,,0.02,5.000000,,2013-05-29 13:42:00,
2013-05-29 07:53:00,33.0,32.0,-100.00,NNE,32,3.0,5.0,96,0.00,,,0.02,5.000000,,2013-05-29 13:53:00,
2013-05-29 08:01:00,33.0,32.0,-100.00,NNE,32,3.0,5.0,96,0.00,,,0.02,5.000000,,2013-05-29 14:01:00,
2013-05-29 08:11:00,33.0,32.0,-100.00,NNE,32,3.0,5.0,96,0.00,,,0.02,5.000000,,2013-05-29 14:11:00,
2013-05-29 08:32:00,36.0,34.0,-100.00,NNE,13,2.0,6.0,94,0.00,,,0.02,38.000000,,2013-05-29 14:32:00,
2013-05-29 08:42:00,36.0,34.0,-100.00,NNE,13,2.0,6.0,94,0.00,,,0.02,38.000000,,2013-05-29 14:42:00,
2013-05-29 08:52:00,36.0,34.0,-100.00,NNE,13,2.0,6.0,94,0.00,,,0.02,38.000000,,2013-05-29 14:52:00,
2013-05-29 09:01:00,36.0,34.0,-100.00,NNE,13,2.0,6.0,94,0.00,,,0.02,38.000000,,2013-05-29 15:01:00,
2013-05-29 09:33:00,42.0,37.0,-100.00,North,6,2.0,7.0,83,0.00,,,0.02,120.000000,,2013-05-29 15:33:00,
2013-05-29 09:42:00,42.0,37.0,-100.00,North,6,2.0,7.0,83,0.00,,,0.02,120.000000,,2013-05-29 15:42:00,
2013-05-29 09:53:00,42.0,37.0,-100.00,North,6,2.0,7.0,83,0.00,,,0.02,120.000000,,2013-05-29 15:53:00,
2013-05-29 10:03:00,42.0,37.0,-100.00,North,6,2.0,7.0,83,0.00,,,0.02,120.000000,,2013-05-29 16:03:00,
2013-05-29 10:12:00,42.0,37.0,-100.00,North,6,2.0,7.0,83,0.00,,,0.02,120.000000,,2013-05-29 16:12:00,
2013-05-29 10:33:00,48.0,38.0,-100.00,North,355,4.0,6.0,67,0.00,,,0.02,262.000000,,2013-05-29 16:33:00,
2013-05-29 10:42:00,48.0,38.0,-100.00,North,355,4.0,6.0,67,0.00,,,0.02,262.000000,,2013-05-29 16:42:00,
2013-05-29 10:52:00,48.0,38.0,-100.00,North,355,4.0,6.0,67,0.00,,,0.02,262.000000,,2013-05-29 16:52:00,
2013-05-29 11:02:00,48.0,38.0,-100.00,North,355,4.0,6.0,67,0.00,,,0.02,262.000000,,2013-05-29 17:02:00,
2013-05-29 11:11:00,48.0,38.0,-100.00,North,355,4.0,6.0,67,0.00,,,0.02,262.000000,,2013-05-29 17:11:00,
2013-05-29 11:32:00,52.0,38.0,-100.00,NNW,328,5.0,8.0,59,0.00,,,0.02,417.000000,,2013-05-29 17:32:00,
2013-05-29 11:43:00,52.0,38.0,-100.00,NNW,328,5.0,8.0,59,0.00,,,0.02,417.000000,,2013-05-29 17:43:00,
2013-05-29 11:52:00,52.0,38.0,-100.00,NNW,328,5.0,8.0,59,0.00,,,0.02,417.000000,,2013-05-29 17:52:00,
2013-05-29 12:01:00,52.0,38.0,-100.00,NNW,328,5.0,8.0,59,0.00,,,0.02,417.000000,,2013-05-29 18:01:00,
2013-05-29 12:13:00,52.0,38.0,-100.00,NNW,328,5.0,8.0,59,0.00,,,0.02,417.000000,,2013-05-29 18:13:00,
2013-05-29 12:32:00,61.0,36.0,-100.00,NW,310,4.0,9.0,39,0.00,,,0.02,696.000000,,2013-05-29 18:32:00,
2013-05-29 12:42:00,61.0,36.0,-100.00,NW,310,4.0,9.0,39,0.00,,,0.02,696.000000,,2013-05-29 18:42:00,
2013-05-29 12:52:00,61.0,36.0,-100.00,NW,310,4.0,9.0,39,0.00,,,0.02,696.000000,,2013-05-29 18:52:00,
2013-05-29 13:01:00,61.0,36.0,-100.00,NW,310,4.0,9.0,39,0.00,,,0.02,696.000000,,2013-05-29 19:01:00,
2013-05-29 13:11:00,61.0,36.0,-100.00,NW,310,4.0,9.0,39,0.00,,,0.02,696.000000,,2013-05-29 19:11:00,
2013-05-29 13:32:00,58.0,33.0,-100.00,North,359,5.0,14.0,38,0.00,,,0.01,732.000000,,2013-05-29 19:32:00,
2013-05-29 13:44:00,58.0,33.0,-100.00,North,359,5.0,14.0,38,0.00,,,0.01,732.000000,,2013-05-29 19:44:00,
2013-05-29 13:53:00,58.0,33.0,-100.00,North,359,5.0,14.0,38,0.00,,,0.01,732.000000,,2013-05-29 19:53:00,
2013-05-29 14:02:00,58.0,33.0,-100.00,North,359,5.0,14.0,38,0.00,,,0.01,732.000000,,2013-05-29 20:02:00,
2013-05-29 14:11:00,58.0,33.0,-100.00,North,359,5.0,14.0,38,0.00,,,0.01,732.000000,,2013-05-29 20:11:00,
2013-05-29 14:33:00,65.0,29.0,-100.00,West,278,4.0,11.0,26,0.00,,,0.00,779.000000,,2013-05-29 20:33:00,
2013-05-29 14:42:00,65.0,29.0,-100.00,West,278,4.0,11.0,26,0.00,,,0.00,779.000000,,2013-05-29 20:42:00,
2013-05-29 14:52:00,65.0,29.0,-100.00,West,278,4.0,11.0,26,0.00,,,0.00,779.000000,,2013-05-29 20:52:00,
2013-05-29 15:02:00,65.0,29.0,-100.00,West,278,4.0,11.0,26,0.00,,,0.00,779.000000,,2013-05-29 21:02:00,
2013-05-29 15:12:00,65.0,29.0,-100.00,West,278,4.0,11.0,26,0.00,,,0.00,779.000000,,2013-05-29 21:12:00,
2013-05-29 15:33:00,66.0,27.0,-100.00,WNW,303,5.0,9.0,23,0.00,,,0.00,959.000000,,2013-05-29 21:33:00,
2013-05-29 15:44:00,66.0,27.0,-100.00,WNW,303,5.0,9.0,23,0.00,,,0.00,959.000000,,2013-05-29 21:44:00,
2013-05-29 15:53:00,66.0,27.0,-100.00,WNW,303,5.0,9.0,23,0.00,,,0.00,959.000000,,2013-05-29 21:53:00,
2013-05-29 16:03:00,66.0,27.0,-100.00,WNW,303,5.0,9.0,23,0.00,,,0.00,959.000000,,2013-05-29 22:03:00,
2013-05-29 16:12:00,66.0,27.0,-100.00,WNW,303,5.0,9.0,23,0.00,,,0.00,959.000000,,2013-05-29 22:12:00,
2013-05-29 16:34:00,64.0,32.0,-100.00,NE,44,3.0,9.0,30,0.00,,,0.00,345.000000,,2013-05-29 22:34:00,
2013-05-29 16:42:00,64.0,32.0,-100.00,NE,44,3.0,9.0,30,0.00,,,0.00,345.000000,,2013-05-29 22:42:00,
2013-05-29 16:53:00,64.0,32.0,-100.00,NE,44,3.0,9.0,30,0.00,,,0.00,345.000000,,2013-05-29 22:53:00,
2013-05-29 17:02:00,64.0,32.0,-100.00,NE,44,3.0,9.0,30,0.00,,,0.00,345.000000,,2013-05-29 23:02:00,
2013-05-29 17:12:00,64.0,32.0,-100.00,NE,44,3.0,9.0,30,0.00,,,0.00,345.000000,,2013-05-29 23:12:00,
2013-05-29 17:33:00,63.0,32.0,-100.00,NNE,32,6.0,12.0,31,0.00,,,0.00,311.000000,,2013-05-29 23:33:00,
2013-05-29 17:42:00,63.0,32.0,-100.00,NNE,32,6.0,12.0,31,0.00,,,0.00,311.000000,,2013-05-29 23:42:00,
2013-05-29 17:53:00,63.0,32.0,-100.00,NNE,32,6.0,12.0,31,0.00,,,0.00,311.000000,,2013-05-29 23:53:00,
2013-05-29 18:01:00,63.0,32.0,-100.00,NNE,32,6.0,12.0,31,0.00,,,0.00,311.000000,,2013-05-30 00:01:00,
2013-05-29 18:11:00,63.0,32.0,-100.00,NNE,32,6.0,12.0,31,0.00,,,0.00,311.000000,,2013-05-30 00:11:00,
2013-05-29 19:32:00,53.0,40.0,-100.00,NNE,20,6.0,16.0,61,-99.99,,,0.00,247.000000,,2013-05-30 01:32:00,
2013-05-29 19:42:00,53.0,40.0,-100.00,NNE,20,6.0,16.0,61,-99.99,,,0.00,247.000000,,2013-05-30 01:42:00,
2013-05-29 19:52:00,53.0,40.0,-100.00,NNE,20,6.0,16.0,61,-99.99,,,0.00,247.000000,,2013-05-30 01:52:00,
2013-05-29 20:01:00,53.0,40.0,-100.00,NNE,20,6.0,16.0,61,-99.99,,,0.00,247.000000,,2013-05-30 02:01:00,
2013-05-29 20:11:00,53.0,40.0,-100.00,NNE,20,6.0,16.0,61,-99.99,,,0.00,247.000000,,2013-05-30 02:11:00,
2013-05-29 20:32:00,46.0,43.0,-100.00,ESE,122,3.0,14.0,90,0.03,,,0.03,31.000000,,2013-05-30 02:32:00,
2013-05-29 20:42:00,46.0,43.0,-100.00,ESE,122,3.0,14.0,90,0.03,,,0.03,31.000000,,2013-05-30 02:42:00,
2013-05-29 20:52:00,46.0,43.0,-100.00,ESE,122,3.0,14.0,90,0.03,,,0.03,31.000000,,2013-05-30 02:52:00,
2013-05-29 21:01:00,46.0,43.0,-100.00,ESE,122,3.0,14.0,90,0.03,,,0.03,31.000000,,2013-05-30 03:01:00,
2013-05-29 21:11:00,46.0,43.0,-100.00,ESE,122,3.0,14.0,90,0.03,,,0.03,31.000000,,2013-05-30 03:11:00,
2013-05-29 21:33:00,47.0,43.0,-100.00,ESE,113,2.0,5.0,85,0.00,,,0.03,58.000000,,2013-05-30 03:33:00,
2013-05-29 21:43:00,47.0,43.0,-100.00,ESE,113,2.0,5.0,85,0.00,,,0.03,58.000000,,2013-05-30 03:43:00,
2013-05-29 21:53:00,47.0,43.0,-100.00,ESE,113,2.0,5.0,85,0.00,,,0.03,58.000000,,2013-05-30 03:53:00,
2013-05-29 22:02:00,47.0,43.0,-100.00,ESE,113,2.0,5.0,85,0.00,,,0.03,58.000000,,2013-05-30 04:02:00,
2013-05-29 22:12:00,47.0,43.0,-100.00,ESE,113,2.0,5.0,85,0.00,,,0.03,58.000000,,2013-05-30 04:12:00,
2013-05-29 22:33:00,47.0,40.0,-100.00,ENE,66,4.0,9.0,76,0.00,,,0.03,29.000000,,2013-05-30 04:33:00,
2013-05-29 22:42:00,47.0,40.0,-100.00,ENE,66,4.0,9.0,76,0.00,,,0.03,29.000000,,2013-05-30 04:42:00,
2013-05-29 22:53:00,47.0,40.0,-100.00,ENE,66,4.0,9.0,76,0.00,,,0.03,29.000000,,2013-05-30 04:53:00,
2013-05-29 23:02:00,47.0,40.0,-100.00,ENE,66,4.0,9.0,76,0.00,,,0.03,29.000000,,2013-05-30 05:02:00,
2013-05-29 23:12:00,47.0,40.0,-100.00,ENE,66,4.0,9.0,76,0.00,,,0.03,29.000000,,2013-05-30 05:12:00,
2013-05-29 23:32:00,42.0,39.0,-100.00,SE,132,2.0,6.0,90,0.00,,,0.03,1.000000,,2013-05-30 05:32:00,
2013-05-29 23:42:00,42.0,39.0,-100.00,SE,132,2.0,6.0,90,0.00,,,0.03,1.000000,,2013-05-30 05:42:00,
2013-05-29 23:52:00,42.0,39.0,-100.00,SE,132,2.0,6.0,90,0.00,,,0.03,1.000000,,2013-05-30 05:52:00,